Time,TemperatureF,DewpointF,PressureIn,WindDirection,WindDirectionDegrees,WindSpeedMPH,WindSpeedGustMPH,Humidity,HourlyPrecipIn,Conditions,Clouds,dailyrainin,SoftwareType,DateUTC
2013-09-01 00:03:00,-999.0,-99.9,29.87,NNW,345,1.0,-999.0,-999,-99.99,,,-99.99,,2013-09-01 04:03:00,
2013-09-01 00:14:00,65.0,65.0,29.87,NNW,345,1.0,-999.0,99,-99.99,,,-99.99,,2013-09-01 04:14:00,
2013-09-01 00:25:00,64.0,64.0,29.88,North,355,0.0,-999.0,99,-99.99,,,-99.99,,2013-09-01 04:25:00,
2013-09-01 00:54:00,64.0,63.0,29.85,North,349,1.0,-999.0,98,-99.99,,,-99.99,,2013-09-01 04:54:00,
2013-09-01 01:13:00,64.0,63.0,29.85,South,176,0.0,-999.0,96,-99.99,,,-99.99,,2013-09-01 05:13:00,
2013-09-01 01:23:00,65.0,63.0,29.85,West,264,0.0,-999.0,94,-99.99,,,-99.99,,2013-09-01 05:23:00,
2013-09-01 01:52:00,64.0,63.0,29.84,SW,229,0.0,-999.0,95,-99.99,,,-99.99,,2013-09-01 05:52:00,
2013-09-01 02:12:00,64.0,63.0,29.84,SW,232,0.0,-999.0,97,-99.99,,,-99.99,,2013-09-01 06:12:00,
2013-09-01 02:22:00,64.0,63.0,29.84,WSW,250,0.0,-999.0,98,-99.99,,,-99.99,,2013-09-01 06:22:00,
2013-09-01 02:42:00,64.0,64.0,29.83,SSW,196,0.0,-999.0,99,-99.99,,,-99.99,,2013-09-01 06:42:00,
2013-09-01 02:52:00,64.0,64.0,29.83,WSW,240,0.0,-999.0,99,-99.99,,,-99.99,,2013-09-01 06:52:00,
2013-09-01 03:13:00,64.0,64.0,29.83,WSW,246,0.0,-999.0,99,-99.99,,,-99.99,,2013-09-01 07:13:00,
2013-09-01 03:22:00,64.0,64.0,29.82,NNE,21,0.0,-999.0,99,-99.99,,,-99.99,,2013-09-01 07:22:00,
2013-09-01 03:52:00,64.0,64.0,29.82,SSE,154,0.0,-999.0,100,-99.99,,,-99.99,,2013-09-01 07:52:00,
2013-09-01 04:11:00,64.0,64.0,29.83,SSE,154,0.0,-999.0,99,-99.99,,,-99.99,,2013-09-01 08:11:00,
2013-09-01 04:22:00,64.0,64.0,29.83,ESE,102,0.0,-999.0,99,-99.99,,,-99.99,,2013-09-01 08:22:00,
2013-09-01 04:52:00,63.0,63.0,29.86,NW,314,0.0,-999.0,99,-99.99,,,-99.99,,2013-09-01 08:52:00,
2013-09-01 05:22:00,64.0,64.0,29.87,North,351,1.0,-999.0,100,-99.99,,,-99.99,,2013-09-01 09:22:00,
2013-09-01 05:53:00,64.0,64.0,29.85,West,270,0.0,-999.0,100,-99.99,,,-99.99,,2013-09-01 09:53:00,
2013-09-01 06:12:00,63.0,63.0,29.85,SW,232,0.0,-999.0,100,-99.99,,,-99.99,,2013-09-01 10:12:00,
2013-09-01 06:23:00,63.0,63.0,29.85,NW,306,0.0,-999.0,100,-99.99,,,-99.99,,2013-09-01 10:23:00,
2013-09-01 06:53:00,64.0,64.0,29.85,NW,304,0.0,-999.0,100,-99.99,,,-99.99,,2013-09-01 10:53:00,
2013-09-01 07:12:00,64.0,64.0,29.85,West,269,0.0,-999.0,100,-99.99,,,-99.99,,2013-09-01 11:12:00,
2013-09-01 07:22:00,64.0,64.0,29.85,West,267,0.0,-999.0,100,-99.99,,,-99.99,,2013-09-01 11:22:00,
2013-09-01 07:52:00,64.0,64.0,29.86,NNW,338,1.0,-999.0,100,-99.99,,,-99.99,,2013-09-01 11:52:00,
2013-09-01 08:12:00,64.0,64.0,29.86,SSW,207,0.0,-999.0,100,-99.99,,,-99.99,,2013-09-01 12:12:00,
2013-09-01 08:22:00,64.0,64.0,29.86,NNW,345,0.0,-999.0,100,-99.99,,,-99.99,,2013-09-01 12:22:00,
2013-09-01 08:52:00,64.0,64.0,29.86,WSW,252,0.0,-999.0,100,-99.99,,,-99.99,,2013-09-01 12:52:00,
2013-09-01 09:11:00,65.0,65.0,29.87,North,11,0.0,-999.0,100,-99.99,,,-99.99,,2013-09-01 13:11:00,
2013-09-01 09:21:00,65.0,65.0,29.86,NNW,333,0.0,-999.0,100,-99.99,,,-99.99,,2013-09-01 13:21:00,
2013-09-01 09:52:00,66.0,66.0,29.87,NNW,328,0.0,-999.0,100,-99.99,,,-99.99,,2013-09-01 13:52:00,
2013-09-01 10:11:00,66.0,66.0,29.88,NNW,342,1.0,-999.0,100,-99.99,,,-99.99,,2013-09-01 14:11:00,
2013-09-01 10:22:00,66.0,66.0,29.88,West,273,0.0,-999.0,100,-99.99,,,-99.99,,2013-09-01 14:22:00,
2013-09-01 10:52:00,67.0,67.0,29.86,SSW,205,0.0,-999.0,100,-99.99,,,-99.99,,2013-09-01 14:52:00,
2013-09-01 11:11:00,68.0,67.0,29.87,NNW,331,1.0,-999.0,96,-99.99,,,-99.99,,2013-09-01 15:11:00,
2013-09-01 11:23:00,67.0,66.0,29.88,NE,35,1.0,-999.0,98,-99.99,,,-99.99,,2013-09-01 15:23:00,
2013-09-01 11:45:00,68.0,67.0,29.88,SSW,203,1.0,-999.0,95,-99.99,,,-99.99,,2013-09-01 15:45:00,
2013-09-01 11:55:00,67.0,66.0,29.88,NNW,344,1.0,-999.0,97,-99.99,,,-99.99,,2013-09-01 15:55:00,
2013-09-01 12:14:00,68.0,66.0,29.88,WSW,254,1.0,-999.0,94,-99.99,,,-99.99,,2013-09-01 16:14:00,
2013-09-01 12:24:00,70.0,68.0,29.86,SW,233,0.0,-999.0,94,-99.99,,,-99.99,,2013-09-01 16:24:00,
2013-09-01 12:53:00,70.0,68.0,29.87,WSW,252,1.0,-999.0,92,-99.99,,,-99.99,,2013-09-01 16:53:00,
2013-09-01 13:12:00,70.0,68.0,29.86,SSE,162,0.0,-999.0,93,-99.99,,,-99.99,,2013-09-01 17:12:00,
2013-09-01 13:23:00,71.0,68.0,29.84,SSW,196,1.0,-999.0,91,-99.99,,,-99.99,,2013-09-01 17:23:00,
2013-09-01 13:52:00,71.0,69.0,29.83,South,178,1.0,-999.0,92,-99.99,,,-99.99,,2013-09-01 17:52:00,
2013-09-01 14:13:00,71.0,68.0,29.82,North,351,1.0,-999.0,91,-99.99,,,-99.99,,2013-09-01 18:13:00,
2013-09-01 14:22:00,71.0,69.0,29.83,SSE,156,0.0,-999.0,93,-99.99,,,-99.99,,2013-09-01 18:22:00,
2013-09-01 14:42:00,70.0,68.0,29.83,NW,319,1.0,-999.0,93,-99.99,,,-99.99,,2013-09-01 18:42:00,
2013-09-01 14:52:00,71.0,67.0,29.82,NNW,344,1.0,-999.0,88,-99.99,,,-99.99,,2013-09-01 18:52:00,
2013-09-01 15:12:00,72.0,68.0,29.82,West,266,0.0,-999.0,88,-99.99,,,-99.99,,2013-09-01 19:12:00,
2013-09-01 15:22:00,71.0,68.0,29.83,SW,232,1.0,-999.0,90,-99.99,,,-99.99,,2013-09-01 19:22:00,
2013-09-01 15:52:00,71.0,68.0,29.82,West,270,0.0,-999.0,91,-99.99,,,-99.99,,2013-09-01 19:52:00,
2013-09-01 16:12:00,73.0,69.0,29.80,ENE,69,1.0,-999.0,87,-99.99,,,-99.99,,2013-09-01 20:12:00,
2013-09-01 16:22:00,75.0,69.0,29.79,West,268,1.0,-999.0,81,-99.99,,,-99.99,,2013-09-01 20:22:00,
2013-09-01 16:42:00,75.0,69.0,29.77,South,178,1.0,-999.0,83,-99.99,,,-99.99,,2013-09-01 20:42:00,
2013-09-01 16:52:00,75.0,69.0,29.77,NNE,31,1.0,-999.0,82,-99.99,,,-99.99,,2013-09-01 20:52:00,
2013-09-01 17:22:00,75.0,69.0,29.77,SSW,202,1.0,-999.0,82,-99.99,,,-99.99,,2013-09-01 21:22:00,
2013-09-01 17:55:00,73.0,66.0,29.78,ESE,111,1.0,-999.0,79,-99.99,,,-99.99,,2013-09-01 21:55:00,
2013-09-01 18:15:00,73.0,68.0,29.78,NW,315,2.0,-999.0,83,-99.99,,,-99.99,,2013-09-01 22:15:00,
2013-09-01 18:24:00,72.0,67.0,29.79,WSW,242,2.0,-999.0,83,-99.99,,,-99.99,,2013-09-01 22:24:00,
2013-09-01 18:53:00,69.0,66.0,29.81,NNE,23,2.0,-999.0,89,-99.99,,,-99.99,,2013-09-01 22:53:00,
2013-09-01 19:12:00,67.0,65.0,29.80,ESE,103,1.0,-999.0,92,-99.99,,,-99.99,,2013-09-01 23:12:00,
2013-09-01 19:23:00,66.0,64.0,29.80,NW,326,1.0,-999.0,94,-99.99,,,-99.99,,2013-09-01 23:23:00,
2013-09-01 19:53:00,65.0,62.0,29.82,NNW,329,3.0,-999.0,91,-99.99,,,-99.99,,2013-09-01 23:53:00,
2013-09-01 20:11:00,65.0,63.0,29.81,NNW,338,4.0,-999.0,92,-99.99,,,-99.99,,2013-09-02 00:11:00,
2013-09-01 20:22:00,66.0,64.0,29.82,NW,317,4.0,-999.0,93,-99.99,,,-99.99,,2013-09-02 00:22:00,
2013-09-01 20:42:00,65.0,64.0,29.81,NNW,339,3.0,-999.0,95,-99.99,,,-99.99,,2013-09-02 00:42:00,
2013-09-01 20:52:00,65.0,64.0,29.82,NW,321,3.0,-999.0,96,-99.99,,,-99.99,,2013-09-02 00:52:00,
2013-09-01 21:12:00,65.0,64.0,29.83,NNE,21,4.0,-999.0,95,-99.99,,,-99.99,,2013-09-02 01:12:00,
2013-09-01 21:22:00,65.0,64.0,29.83,NNW,347,4.0,-999.0,95,-99.99,,,-99.99,,2013-09-02 01:22:00,
2013-09-01 21:42:00,65.0,63.0,29.82,North,11,5.0,-999.0,93,-99.99,,,-99.99,,2013-09-02 01:42:00,
2013-09-01 21:52:00,65.0,62.0,29.83,North,5,7.0,-999.0,90,-99.99,,,-99.99,,2013-09-02 01:52:00,
2013-09-01 22:12:00,65.0,62.0,29.84,NNE,24,5.0,-999.0,91,-99.99,,,-99.99,,2013-09-02 02:12:00,
2013-09-01 22:42:00,65.0,63.0,29.85,North,355,4.0,-999.0,93,-99.99,,,-99.99,,2013-09-02 02:42:00,
2013-09-01 22:52:00,65.0,63.0,29.85,NNW,336,5.0,-999.0,93,-99.99,,,-99.99,,2013-09-02 02:52:00,
2013-09-01 23:11:00,65.0,63.0,29.85,NNW,339,4.0,-999.0,93,-99.99,,,-99.99,,2013-09-02 03:11:00,
2013-09-01 23:22:00,65.0,63.0,29.85,NNW,348,5.0,-999.0,93,-99.99,,,-99.99,,2013-09-02 03:22:00,
2013-09-01 23:56:00,65.0,63.0,29.83,NNW,339,4.0,-999.0,92,-99.99,,,-99.99,,2013-09-02 03:56:00,